When you browse on this site, cookies collect data to enhance your experience and personalize the content and advertising you see.
Visit our Privacy Policy to learn more. By continuing to use the site, you agree to this use of cookies and data.
  • In Latvia
  • List of Countries
  • For 7 days
  • Water Temperature
  • Satellite Maps
  • Weather Map
  • Weather Widgets
  • user-avatar
    Login

    Hourly Weather Kapan

    Today, 10 December, Monday

    Time Temperature Precipitation Wind Pressure Humidity
    00:00 +5°C° 0 mm 1 mps 685 mmHg 75%
    01:00 +5°C° 0 mm 1 mps 685 mmHg 74%
    02:00 +5°C° 0 mm 1 mps 685 mmHg 74%
    03:00 +5°C° 0 mm 1 mps 684 mmHg 73%
    04:00 +4°C° 0 mm 2 mps 684 mmHg 72%
    05:00 +4°C° 0 mm 2 mps 684 mmHg 72%
    06:00 +4°C° 0 mm 2 mps 684 mmHg 72%
    07:00 +5°C° 0 mm 2 mps 684 mmHg 69%
    08:00 +6°C° 0 mm 2 mps 685 mmHg 67%
    09:00 +7°C° 0 mm 2 mps 685 mmHg 63%
    10:00 +8°C° 0 mm 2 mps 684 mmHg 60%
    11:00 +9°C° 0 mm 2 mps 684 mmHg 56%
    12:00 +10°C° 0 mm 2 mps 684 mmHg 53%
    13:00 +10°C° 0 mm 2 mps 684 mmHg 52%
    14:00 +10°C° 0 mm 2 mps 683 mmHg 52%
    15:00 +10°C° 0 mm 2 mps 683 mmHg 52%
    16:00 +9°C° 0 mm 2 mps 683 mmHg 56%
    17:00 +7°C° 0 mm 2 mps 683 mmHg 60%
    18:00 +6°C° 0 mm 2 mps 683 mmHg 64%
    19:00 +6°C° 0 mm 2 mps 684 mmHg 64%
    20:00 +6°C° 0 mm 2 mps 684 mmHg 63%
    21:00 +5°C° 0 mm 3 mps 684 mmHg 63%
    22:00 +5°C° 0 mm 3 mps 684 mmHg 63%
    23:00 +5°C° 0 mm 3 mps 684 mmHg 63%

    Tomorrow, 11 December, Tuesday

    Time Temperature Precipitation Wind Pressure Humidity
    00:00 +5°C° 0 mm 3 mps 684 mmHg 63%
    01:00 +5°C° 0 mm 3 mps 684 mmHg 62%
    02:00 +5°C° 0 mm 3 mps 684 mmHg 62%
    03:00 +4°C° 0 mm 3 mps 684 mmHg 62%
    04:00 +4°C° 0 mm 3 mps 684 mmHg 62%
    05:00 +4°C° 0 mm 3 mps 684 mmHg 62%
    06:00 +4°C° 0 mm 3 mps 684 mmHg 63%
    07:00 +7°C° 0 mm 3 mps 684 mmHg 59%
    08:00 +8°C° 0 mm 3 mps 684 mmHg 56%
    09:00 +9°C° 0 mm 3 mps 684 mmHg 53%
    10:00 +10°C° 0 mm 3 mps 684 mmHg 50%
    11:00 +12°C° 0 mm 3 mps 683 mmHg 46%
    12:00 +13°C° 0 mm 3 mps 683 mmHg 43%
    13:00 +13°C° 0 mm 3 mps 683 mmHg 43%
    14:00 +14°C° 0 mm 2 mps 682 mmHg 43%
    15:00 +14°C° 0 mm 2 mps 682 mmHg 43%
    16:00 +13°C° 0 mm 2 mps 682 mmHg 47%
    17:00 +10°C° 0 mm 2 mps 682 mmHg 51%
    18:00 +9°C° 0 mm 2 mps 682 mmHg 55%
    19:00 +8°C° 0 mm 2 mps 682 mmHg 56%
    20:00 +8°C° 0 mm 3 mps 682 mmHg 56%
    21:00 +8°C° 0 mm 3 mps 682 mmHg 56%
    22:00 +8°C° 0 mm 3 mps 682 mmHg 57%
    23:00 +8°C° 0 mm 3 mps 682 mmHg 57%

    Day after tomorrow, 12 December, Wednesday

    Time Temperature Precipitation Wind Pressure Humidity
    00:00 +8°C° 0 mm 3 mps 682 mmHg 57%
    01:00 +7°C° 0 mm 3 mps 682 mmHg 58%
    02:00 +7°C° 0 mm 3 mps 682 mmHg 59%
    03:00 +7°C° 0 mm 3 mps 682 mmHg 59%
    04:00 +7°C° 0 mm 3 mps 682 mmHg 60%
    05:00 +7°C° 0 mm 3 mps 682 mmHg 61%
    06:00 +7°C° 0 mm 3 mps 682 mmHg 61%
    07:00 +8°C° 0 mm 3 mps 682 mmHg 59%
    08:00 +9°C° 0 mm 2 mps 683 mmHg 56%
    09:00 +10°C° 0 mm 2 mps 683 mmHg 53%
    10:00 +12°C° 0 mm 2 mps 683 mmHg 49%
    11:00 +13°C° 0 mm 2 mps 682 mmHg 45%
    12:00 +14°C° 0 mm 2 mps 682 mmHg 41%
    13:00 +14°C° 0 mm 2 mps 681 mmHg 42%
    14:00 +14°C° 0 mm 2 mps 681 mmHg 43%
    15:00 +13°C° 0 mm 3 mps 680 mmHg 43%
    16:00 +12°C° 0 mm 2 mps 680 mmHg 47%
    17:00 +10°C° 0 mm 2 mps 680 mmHg 51%
    18:00 +9°C° 0 mm 2 mps 679 mmHg 55%
    19:00 +9°C° 0 mm 2 mps 679 mmHg 55%
    20:00 +8°C° 0 mm 2 mps 679 mmHg 54%
    21:00 +8°C° 0 mm 3 mps 679 mmHg 54%
    22:00 +8°C° 0 mm 3 mps 679 mmHg 54%
    23:00 +8°C° 0 mm 3 mps 679 mmHg 55%

    13 December, Thursday

    Time Temperature Precipitation Wind Pressure Humidity
    00:00 +8°C° 0 mm 3 mps 679 mmHg 55%
    01:00 +7°C° 0.1 mm 3 mps 679 mmHg 56%
    02:00 +7°C° 0.1 mm 3 mps 679 mmHg 57%
    03:00 +7°C° 0.1 mm 3 mps 679 mmHg 58%
    04:00 +7°C° 0.3 mm 3 mps 679 mmHg 60%
    05:00 +7°C° 0.3 mm 3 mps 679 mmHg 63%
    06:00 +7°C° 0.3 mm 3 mps 680 mmHg 65%
    07:00 +8°C° 0.3 mm 3 mps 680 mmHg 64%
    08:00 +8°C° 0.3 mm 3 mps 681 mmHg 63%
    09:00 +9°C° 0.3 mm 3 mps 681 mmHg 62%
    10:00 +9°C° 0.1 mm 3 mps 681 mmHg 59%
    11:00 +10°C° 0.1 mm 3 mps 681 mmHg 55%
    12:00 +10°C° 0.1 mm 4 mps 682 mmHg 52%
    13:00 +10°C° 0 mm 3 mps 682 mmHg 52%
    14:00 +10°C° 0 mm 3 mps 682 mmHg 52%
    15:00 +9°C° 0 mm 2 mps 682 mmHg 52%
    16:00 +8°C° 0 mm 2 mps 683 mmHg 57%
    17:00 +7°C° 0 mm 2 mps 683 mmHg 61%
    18:00 +6°C° 0 mm 1 mps 684 mmHg 66%
    19:00 +6°C° 0 mm 1 mps 684 mmHg 65%
    20:00 +6°C° 0 mm 1 mps 685 mmHg 64%
    21:00 +6°C° 0 mm 1 mps 685 mmHg 64%
    22:00 +5°C° 0 mm 1 mps 685 mmHg 64%
    23:00 +5°C° 0 mm 1 mps 686 mmHg 64%

    14 December, Friday

    Time Temperature Precipitation Wind Pressure Humidity
    00:00 +5°C° 0 mm 1 mps 686 mmHg 64%
    01:00 +4°C° 0 mm 1 mps 686 mmHg 65%
    02:00 +4°C° 0 mm 1 mps 686 mmHg 66%
    03:00 +4°C° 0 mm 1 mps 687 mmHg 66%
    04:00 +3°C° 0 mm 1 mps 687 mmHg 67%
    05:00 +3°C° 0 mm 1 mps 687 mmHg 67%
    06:00 +3°C° 0 mm 1 mps 688 mmHg 67%
    07:00 +4°C° 0 mm 1 mps 688 mmHg 64%
    08:00 +5°C° 0 mm 1 mps 688 mmHg 60%
    09:00 +6°C° 0 mm 1 mps 688 mmHg 57%
    10:00 +7°C° 0 mm 1 mps 688 mmHg 53%
    11:00 +7°C° 0 mm 2 mps 687 mmHg 50%
    12:00 +8°C° 0 mm 2 mps 687 mmHg 47%
    13:00 +8°C° 0 mm 2 mps 687 mmHg 48%
    14:00 +8°C° 0 mm 2 mps 686 mmHg 49%
    15:00 +7°C° 0 mm 2 mps 686 mmHg 50%
    16:00 +6°C° 0 mm 2 mps 686 mmHg 53%
    17:00 +6°C° 0 mm 1 mps 686 mmHg 57%
    18:00 +5°C° 0 mm 1 mps 686 mmHg 61%
    19:00 +5°C° 0 mm 1 mps 686 mmHg 61%
    20:00 +4°C° 0 mm 2 mps 686 mmHg 61%
    21:00 +4°C° 0 mm 2 mps 686 mmHg 61%
    22:00 +4°C° 0 mm 2 mps 686 mmHg 63%
    23:00 +4°C° 0 mm 2 mps 686 mmHg 65%

    15 December, Saturday

    Time Temperature Precipitation Wind Pressure Humidity
    00:00 +4°C° 0 mm 1 mps 686 mmHg 66%
    01:00 +4°C° 0 mm 1 mps 686 mmHg 67%
    02:00 +4°C° 0 mm 1 mps 687 mmHg 67%
    03:00 +4°C° 0 mm 1 mps 687 mmHg 67%
    04:00 +3°C° 0 mm 1 mps 687 mmHg 67%
    05:00 +3°C° 0 mm 1 mps 687 mmHg 67%
    06:00 +3°C° 0 mm 1 mps 687 mmHg 67%
    07:00 +4°C° 0 mm 1 mps 688 mmHg 64%
    08:00 +5°C° 0 mm 1 mps 688 mmHg 61%
    09:00 +6°C° 0 mm 1 mps 689 mmHg 57%
    10:00 +7°C° 0 mm 1 mps 689 mmHg 55%
    11:00 +7°C° 0 mm 2 mps 689 mmHg 53%
    12:00 +8°C° 0 mm 2 mps 688 mmHg 50%
    13:00 +8°C° 0 mm 2 mps 688 mmHg 51%
    14:00 +7°C° 0 mm 2 mps 688 mmHg 52%
    15:00 +7°C° 0 mm 2 mps 688 mmHg 52%
    16:00 +6°C° 0 mm 2 mps 688 mmHg 57%
    17:00 +5°C° 0 mm 1 mps 688 mmHg 62%
    18:00 +4°C° 0 mm 1 mps 689 mmHg 66%
    19:00 +4°C° 0 mm 1 mps 689 mmHg 67%
    20:00 +4°C° 0 mm 1 mps 689 mmHg 67%
    21:00 +3°C° 0 mm 1 mps 689 mmHg 67%
    22:00 +3°C° 0 mm 1 mps 689 mmHg 67%
    23:00 +3°C° 0 mm 1 mps 689 mmHg 67%
    Show more